Flag for U.S.A. Weather past 2 weeks in Oklahoma City, Oklahoma, U.S.A.

Now
72 °F

Light rain. Overcast.


Feels Like: 70 °F
Forecast: 67 / 72 °F
Wind: 10 mph from Southeast

Location: Will Rogers World Airport

Current Time: Jul 30, 2014 at 4:57:29 PM

Latest Report: Jul 30, 2014 at 3:52 PM


Visibility: 10 mi

Pressure: 29.96 "Hg

Humidity: 87%

Dew point: 68 °F

Location of Oklahoma CityLocation

Historic Weather in Oklahoma City — Graph

°F

Oklahoma City temperature yesterday

Maximum temperature yesterday: 91 °F (at 2:52 PM)
Minimum temperature yesterday: 72 °F (at 1:52 AM)
Average temperature yesterday: 79 °F

Past Weeks' High & Low Weather Summary

 TemperatureHumidityPressure
High100 °F (Jul 26, 3:52 PM)96% (Jul 17, 4:52 AM)30.23 "Hg (Jul 17, 4:52 AM)
Low62 °F (Jul 16, 11:52 AM)30% (Jul 25, 6:52 PM)29.80 "Hg (Jul 25, 7:52 PM)
Average77 °F68%30.00 "Hg
* Reported Jul 15 3:52 PM — Jul 30 3:52 PM, Oklahoma City, Weather by CustomWeather, © 2014

Note: Actual official high and low records may vary slightly from our data, if they occured in-between our weather recording intervals... More about our weather records

Advertising

Oklahoma City weather history for previous 24 hours

 ConditionsComfort  
Time TempWeatherWind HumidityBarometerVisibility
3:52 PM
Jul 30
72 °FLight rain. Overcast.10 mph87%29.96 "Hg10 mi
3:02 PM72 °FLight rain. Mostly cloudy.12 mph88%30.00 "Hg10 mi
2:52 PM72 °FLight rain. Cloudy.14 mph87%29.97 "Hg9 mi
1:52 PM72 °FLight rain. Fog.14 mph91%29.98 "Hg6 mi
12:52 PM71 °FLight rain. Fog.12 mph90%30.00 "Hg6 mi
11:52 AM70 °FLight rain. Fog.14 mph87%30.02 "Hg4 mi
10:59 AM70 °FLight rain. Fog.No wind88%30.07 "Hg5 mi
9:52 AM68 °FLight rain. Cloudy.13 mph93%30.03 "Hg7 mi
8:52 AM67 °FHeavy rain. Fog.9 mph90%30.05 "Hg1 mi
7:52 AM67 °FRain. Fog.8 mph90%30.05 "Hg3 mi
6:52 AM68 °FLight rain. Overcast.6 mph87%30.04 "Hg10 mi
5:52 AM70 °FLight rain. Overcast.6 mph84%30.03 "Hg10 mi
4:52 AM71 °FLight rain. Overcast.No wind87%30.03 "Hg10 mi
3:52 AM72 °FMostly cloudy.No wind84%30.01 "Hg10 mi
2:52 AM73 °FOvercast.5 mph79%30.01 "Hg10 mi
1:52 AM72 °FLight rain. Overcast.7 mph81%30.01 "Hg10 mi
12:52 AM72 °FMostly cloudy.5 mph81%30.04 "Hg10 mi
11:52 PM
Jul 29
73 °FLight rain. Mostly cloudy.3 mph76%30.05 "Hg10 mi
10:52 PM76 °FOvercast.No wind60%30.04 "Hg10 mi
9:52 PM76 °FMostly cloudy.No wind60%30.04 "Hg10 mi
8:52 PM76 °FMostly cloudy.No wind62%30.03 "Hg10 mi
7:52 PM77 °FMostly cloudy.6 mph60%30.03 "Hg10 mi
6:52 PM77 °FCloudy.8 mph60%30.03 "Hg10 mi
5:52 PM80 °FMore clouds than sun.10 mph58%30.05 "Hg10 mi
4:52 PM83 °FCloudy.14 mph50%30.07 "Hg10 mi
Weather by CustomWeather, © 2014

See weather overviewHow to use our weather pages